Location: Killam
(52.7910°N, 111.8608°W)
Time: 21:57:23
(UTC+00:00)

Transit 2A Rocket - All Passes

Search period start: 17 February 2026 00:00
Search period end: 27 February 2026 00:00
Orbit: 582 x 901 km, 66.7° (Epoch: 17 February)

Date Brightness Start Highest point End Pass type
(mag) Time Alt. Az. Time Alt. Az. Time Alt. Az.
17 Feb - 01:14:18 10° WSW 01:20:15 55° NW 01:26:04 10° NE visible
17 Feb - 02:59:01 10° WNW 03:03:53 25° NNW 03:08:36 10° NE visible
17 Feb - 04:43:50 10° NW 04:48:14 21° N 04:52:25 10° NE visible
17 Feb - 06:26:58 10° NW 06:32:16 36° NNE 06:37:10 10° E visible
17 Feb - 08:09:31 10° NW 08:15:08 69° SW 08:20:14 10° SSE visible
17 Feb - 09:53:47 10° WNW 09:56:25 14° WSW 09:58:58 10° SW night (unlit)
17 Feb - 22:47:28 10° SSE 22:52:29 28° ESE 22:57:27 10° NE daylight
18 Feb - 00:28:24 10° SW 00:34:28 77° NW 00:40:26 10° NE daylight
18 Feb - 02:12:32 10° W 02:17:46 30° NNW 02:22:50 10° NE visible
18 Feb - 03:57:38 10° NW 04:01:59 20° N 04:06:09 10° NE visible
18 Feb - 05:41:15 10° NW 05:46:13 28° NNE 05:50:52 10° E visible
18 Feb - 07:23:49 10° NW 07:29:31 79° NE 07:34:41 10° SE visible
18 Feb - 09:07:03 10° WNW 09:11:17 23° WSW 09:15:14 10° SSW night (unlit)
18 Feb - 22:03:23 10° SE 22:07:14 18° ESE 22:11:04 10° ENE daylight
18 Feb - 23:42:47 10° SSW 23:48:48 74° SE 23:54:44 10° NE daylight
19 Feb - 01:26:09 10° W 01:31:44 37° NNW 01:37:10 10° NE visible
19 Feb - 03:11:16 10° WNW 03:15:44 21° N 03:20:02 10° NE visible
19 Feb - 04:55:26 10° NW 05:00:04 24° NNE 05:04:28 10° ENE visible
19 Feb - 06:38:09 10° NW 06:43:44 54° NE 06:48:50 10° ESE visible
19 Feb - 08:20:56 10° NW 08:26:00 37° WSW 08:30:39 10° S night (unlit)
19 Feb - 21:21:24 10° ESE 21:22:08 10° E 21:22:50 10° E daylight
19 Feb - 22:57:30 10° SSW 23:03:16 49° ESE 23:08:59 10° NE daylight
20 Feb - 00:39:56 10° WSW 00:45:48 50° NW 00:51:31 10° NE daylight
20 Feb - 02:24:47 10° WNW 02:29:31 24° NNW 02:34:06 10° NE visible
20 Feb - 04:09:28 10° NW 04:13:52 21° N 04:18:04 10° ENE visible
20 Feb - 05:52:29 10° NW 05:57:50 39° NE 06:02:46 10° ESE visible
20 Feb - 07:35:04 10° NW 07:40:34 60° WSW 07:45:34 10° SSE visible
20 Feb - 09:20:01 10° W 09:21:43 11° W 09:23:22 10° WSW night (unlit)
20 Feb - 22:12:38 10° S 22:17:52 32° ESE 22:23:03 10° NE daylight
20 Feb - 23:53:56 10° SW 23:59:59 70° NW 00:05:53 10° NE daylight
21 Feb - 01:38:16 10° W 01:43:23 28° NNW 01:48:19 10° NE visible
21 Feb - 03:23:20 10° NW 03:27:38 20° N 03:31:45 10° NE visible
21 Feb - 05:06:47 10° NW 05:11:49 30° NNE 05:16:30 10° E visible
21 Feb - 06:49:20 10° NW 06:54:59 88° NE 07:00:07 10° SE visible
21 Feb - 08:32:46 10° WNW 08:36:36 20° WSW 08:40:13 10° SSW night (unlit)
21 Feb - 21:28:19 10° SSE 21:32:35 20° ESE 21:36:48 10° ENE daylight
21 Feb - 23:08:14 10° SSW 23:14:17 82° SE 23:20:14 10° NE daylight
22 Feb - 00:51:50 10° W 00:57:19 35° NNW 01:02:37 10° NE daylight
22 Feb - 02:36:59 10° NW 02:41:22 21° N 02:45:36 10° NE visible
22 Feb - 04:21:00 10° NW 04:25:42 25° NNE 04:30:07 10° ENE visible
22 Feb - 06:03:38 10° NW 06:09:15 60° NE 06:14:21 10° SE visible
22 Feb - 07:46:31 10° NW 07:51:22 32° WSW 07:55:49 10° S visible
22 Feb - 20:45:11 10° ESE 20:47:26 12° ESE 20:49:41 10° E daylight
22 Feb - 22:22:49 10° SSW 22:28:42 55° ESE 22:34:29 10° NE daylight
23 Feb - 00:05:33 10° WSW 00:11:21 45° NW 00:16:58 10° NE daylight
23 Feb - 01:50:32 10° WNW 01:55:10 23° NNW 01:59:37 10° NE visible
23 Feb - 03:35:05 10° NW 03:39:30 22° N 03:43:42 10° ENE visible
23 Feb - 05:17:59 10° NW 05:23:23 42° NE 05:28:20 10° ESE visible
23 Feb - 07:00:36 10° NW 07:05:59 52° WSW 07:10:52 10° SSE visible
23 Feb - 21:37:50 10° S 21:43:16 36° ESE 21:48:37 10° NE daylight
23 Feb - 23:19:29 10° SW 23:25:30 63° NW 23:31:21 10° NE daylight
24 Feb - 01:04:00 10° WNW 01:08:59 26° NNW 01:13:48 10° NE daylight
24 Feb - 02:48:59 10° NW 02:53:16 20° N 02:57:21 10° NE visible
24 Feb - 04:32:18 10° NW 04:37:24 32° NNE 04:42:07 10° E visible
24 Feb - 06:14:49 10° NW 06:20:26 83° SW 06:25:30 10° SE visible
24 Feb - 07:58:33 10° WNW 08:01:55 17° WSW 08:05:05 10° SW visible
24 Feb - 20:53:19 10° SSE 20:57:56 23° ESE 21:02:29 10° ENE daylight
24 Feb - 22:33:41 10° SW 22:39:46 89° NW 22:45:41 10° NE daylight
25 Feb - 00:17:32 10° W 00:22:54 32° NNW 00:28:04 10° NE daylight
25 Feb - 02:02:42 10° NW 02:07:01 20° N 02:11:09 10° NE visible
25 Feb - 03:46:32 10° NW 03:51:18 26° NNE 03:55:45 10° ENE visible
25 Feb - 05:29:08 10° NW 05:34:44 66° NE 05:39:49 10° SE visible
25 Feb - 07:12:08 10° NW 07:16:43 28° WSW 07:20:56 10° S visible
25 Feb - 20:09:41 10° SE 20:12:44 14° ESE 20:15:46 10° ENE daylight
25 Feb - 21:48:12 10° SSW 21:54:09 62° ESE 21:59:59 10° NE daylight
25 Feb - 23:31:12 10° WSW 23:36:54 42° NW 23:42:25 10° NE daylight
26 Feb - 01:16:15 10° WNW 01:20:47 22° NNW 01:25:07 10° NE daylight
26 Feb - 03:00:40 10° NW 03:05:08 22° NNE 03:09:21 10° ENE visible
26 Feb - 04:43:28 10° NW 04:48:54 46° NE 04:53:53 10° ESE visible
26 Feb - 06:26:08 10° NW 06:31:22 45° WSW 06:36:06 10° S visible
26 Feb - 21:03:04 10° S 21:08:39 41° ESE 21:14:09 10° NE daylight
26 Feb - 22:45:03 10° WSW 22:51:00 57° NW 22:56:47 10° NE daylight
